Tracking 22881 objects as of 19-Apr-2021
HD Live streaming from Space Station
objects crossing your sky now

SL-8 R/B

Track SL-8 R/B now!
10-day predictions


NORAD ID: 11112
Int'l Code: 1978-105B
Perigee: 749.5 km
Apogee: 799.6 km
Inclination: 74.0 °
Period: 100.2 minutes
Semi major axis: 7145 km
RCS: 4.9315 m2 (large)
Launch date: November 16, 1978
Source: Commonwealth of Independent States (former USSR) (CIS)
Launch site: PLESETSK MISSILE AND SPACE COMPLEX (PKMTR)

Note: This is a ROCKET BODY
aabbcc
Your satellite tracking list
Your tracking list is empty




NASA's NSSDC Master Catalog

Two Line Element Set (TLE):
1 11112U 78105B   21109.42711974 -.00000040  00000-0 -45579-5 0  9996
2 11112  74.0278 106.1664 0035019 280.5983  79.1226 14.37307063220952
Source of the keplerian elements: AFSPC